Weather History for Annapolis Naval Academy, MD

Change the Weather History Date:

Wednesday, June 18, 2014

  Actual Average (KBWI) Record (KBWI)
Temperature  
Mean Temperature 84 °F 73 °F  
Max Temperature 93 °F 84 °F 97 °F (1957)
Min Temperature 78 °F 63 °F 48 °F (1959)
Degree Days  
Heating Degree Days 0 0  
Month to date heating degree days 13  
Since 1 June heating degree days 13  
Since 1 July heating degree days 4762  
Cooling Degree Days 20 9  
Month to date cooling degree days 118  
Year to date cooling degree days 202  
Since 1 June cooling degree days 118  
Growing Degree Days 34 (Base 50)    
Moisture  
Dew Point 69 °F    
Average Humidity 60    
Maximum Humidity 85    
Minimum Humidity 45    
Precipitation  
Precipitation 0.00 in 0.12 in 2.10 in (1878)
Month to date precipitation 2.15  
Year to date precipitation 19.18  
Snow  
Snow 0.00 in 0.00 in - ()
Month to date snowfall 0.0  
Since 1 July snowfall 20.1  
Snow Depth -    
Sea Level Pressure  
Sea Level Pressure 29.97 in    
Wind  
Wind Speed 5 mph (WNW)    
Max Wind Speed 14 mph    
Max Gust Speed 24 mph    
Visibility 8 miles    
Events      
T = Trace of Precipitation, MM = Missing Value Source: NWS Daily Summary

Daily Weather History Graph

Daily Weather History Graph

Search for Another Location

Airport:

Trip Planner

Search our weather history database for the weather conditions in past years. The results will help you decide how hot, cold, wet, or windy it might be!

Date:

Astronomy

Jun. 18, 2014 Rise Set
Actual Time 5:40 AM EDT 8:34 PM EDT
Civil Twilight 5:07 AM EDT 9:06 PM EDT
Nautical Twilight 4:27 AM EDT 9:46 PM EDT
Astronomical Twilight 3:40 AM EDT 10:33 PM EDT
Moon 12:04 AM EDT (6/18) 11:57 AM EDT (6/18)
Length of Visible Light 15h 58m
Length of Day
14h 54m
Waning Gibbous, 63% of the Moon is Illuminated
Jun 18
Waning Gibbous
Jun 19
Last Quarter
Jun 27
New
Jul 5
First Quarter
Jul 12
Full

Hourly Weather History & Observations

Time (EDT) Temp. Heat Index Dew Point Humidity Pressure Visibility Wind Dir Wind Speed Gust Speed Precip Events Conditions
12:54 AM 82.0 °F 86.3 °F 71.1 °F 69% 29.95 in 9.0 mi Calm Calm - N/A   Clear
1:54 AM 81.0 °F 84.9 °F 71.1 °F 72% 29.96 in 8.0 mi West 3.5 mph - N/A   Clear
2:54 AM 78.1 °F - 72.0 °F 81% 29.98 in 7.0 mi Calm Calm - N/A   Clear
3:54 AM 80.1 °F 82.7 °F 68.0 °F 67% 29.97 in 9.0 mi WNW 4.6 mph - N/A   Clear
4:54 AM 80.1 °F 82.3 °F 66.9 °F 64% 29.93 in 10.0 mi West 5.8 mph - N/A   Clear
5:54 AM 81.0 °F 82.7 °F 64.9 °F 58% 29.94 in 9.0 mi West 8.1 mph - N/A   Clear
6:54 AM 81.0 °F 83.0 °F 66.0 °F 60% 29.96 in 8.0 mi Calm Calm - N/A   Clear
7:54 AM 82.0 °F 84.5 °F 66.9 °F 60% 29.97 in 8.0 mi West 8.1 mph - N/A   Clear
8:54 AM 86.0 °F 88.8 °F 66.9 °F 53% 29.96 in 9.0 mi Variable 4.6 mph - N/A   Clear
9:54 AM 87.1 °F 90.6 °F 68.0 °F 53% 29.97 in 9.0 mi NW 8.1 mph - N/A   Clear
10:54 AM 87.1 °F 91.3 °F 69.1 °F 55% 29.99 in 5.0 mi WNW 12.7 mph 17.3 mph N/A   Haze
11:54 AM 90.0 °F 93.6 °F 68.0 °F 48% 30.00 in 9.0 mi WNW 13.8 mph 24.2 mph N/A   Clear
12:54 PM 90.0 °F 94.5 °F 69.1 °F 50% 30.01 in 9.0 mi WNW 12.7 mph - N/A   Scattered Clouds
1:54 PM 91.0 °F 94.3 °F 66.9 °F 45% 29.99 in 9.0 mi West 12.7 mph 21.9 mph N/A   Clear
2:54 PM 91.0 °F 95.2 °F 68.0 °F 47% 29.98 in 9.0 mi Variable 4.6 mph - N/A   Clear
3:54 PM 91.9 °F 95.9 °F 68.0 °F 45% 29.97 in 10.0 mi WNW 6.9 mph 17.3 mph N/A   Clear
4:54 PM 91.9 °F 95.9 °F 68.0 °F 45% 29.97 in 9.0 mi Variable 5.8 mph - N/A   Clear
5:54 PM 91.0 °F 95.6 °F 69.1 °F 48% 29.97 in 9.0 mi NNW 3.5 mph - N/A   Clear
6:54 PM 91.0 °F 95.6 °F 69.1 °F 48% 29.96 in 8.0 mi West 5.8 mph - N/A   Clear
7:54 PM 89.1 °F 95.0 °F 71.1 °F 55% 29.96 in 8.0 mi SSW 4.6 mph - N/A   Clear
8:54 PM 84.0 °F 92.6 °F 75.9 °F 76% 29.97 in 7.0 mi Calm Calm - N/A   Clear
9:54 PM 81.0 °F 87.3 °F 75.9 °F 85% 29.98 in 6.0 mi Calm Calm - N/A   Haze
10:54 PM 82.9 °F 88.8 °F 73.0 °F 72% 29.96 in 5.0 mi Variable 3.5 mph - N/A   Haze
11:54 PM 82.9 °F 88.8 °F 73.0 °F 72% 29.98 in 8.0 mi NNE 10.4 mph - N/A   Scattered Clouds